EW6625 Weather Reports


time (UTC)temp
F
wind
direction
speed
knots
gust
knots
rain 1hr
in
rain 24hr
in
rain mn
in
humidity
%
barometer
mb
20260505171135 74 151 11.3 22.6 0.00 0.00 0.00 47 1001.6
20260505170634 74 218 12.2 23.5 0.00 0.00 0.00 47 1001.7
20260505170135 74 176 10.4 23.5 0.00 0.00 0.00 48 1001.6
20260505165635 74 213 11.3 26.9 0.00 0.00 0.00 48 1001.7
20260505165135 75 229 8.7 26.9 0.00 0.00 0.00 46 1001.9
20260505164634 75 238 7.8 20.0 0.00 0.00 0.00 48 1002.0
20260505164132 74 250 8.7 20.0 0.00 0.00 0.00 49 1002.0
20260505163633 74 255 9.6 21.7 0.00 0.00 0.00 49 1002.1
20260505163132 74 219 9.6 21.7 0.00 0.00 0.00 49 1002.1
20260505162632 74 216 8.7 17.4 0.00 0.00 0.00 48 1002.0
20260505162132 73 290 9.6 25.2 0.00 0.00 0.00 49 1002.2
20260505161930 73 203 11.3 25.2 0.00 0.00 0.00 49 1002.5
20260505161133 73 274 12.2 27.8 0.00 0.00 0.00 49 1002.5
20260505160632 73 243 10.4 27.8 0.00 0.00 0.00 49 1002.5
20260505160133 73 224 9.6 20.9 0.00 0.00 0.00 48 1002.6
20260505153230 71 260 9.6 21.7 0.00 0.00 0.00 53 1002.7
20260505153209 72 238 7.8 19.1 0.00 0.00 0.00 51 1002.6
20260505152431 71 215 11.3 24.3 0.00 0.00 0.00 54 1002.8
20260505151630 70 169 12.2 24.3 0.00 0.00 0.00 53 1002.7
20260505151437 70 233 12.2 23.5 0.00 0.00 0.00 54 1002.8
20260505150631 70 213 11.3 23.5 0.00 0.00 0.00 54 1002.8
20260505150130 70 227 10.4 21.7 0.00 0.00 0.00 55 1002.8
20260505140629 67 200 7.8 17.4 0.00 0.00 0.00 58 1002.8
20260505140131 67 222 8.7 22.6 0.00 0.00 0.00 58 1002.8
20260505130129 65 253 6.1 12.2 0.00 0.00 0.00 64 1003.3
20260505124629 64 220 6.1 12.2 0.00 0.00 0.00 66 1003.2
20260505124540 63 207 5.2 12.2 0.00 0.00 0.00 66 1003.2
20260505124211 63 231 5.2 12.2 0.00 0.00 0.00 65 1003.1
20260505123129 62 202 5.2 12.2 0.00 0.00 0.00 67 1003.1
20260505122629 62 216 5.2 12.2 0.00 0.00 0.00 66 1003.0
20260505122129 62 190 4.3 8.7 0.00 0.00 0.00 70 1002.9
20260505121630 61 189 4.3 9.6 0.00 0.00 0.00 69 1003.0
20260505121130 61 187 5.2 9.6 0.00 0.00 0.00 69 1003.0
20260505120629 60 248 5.2 11.3 0.00 0.00 0.00 68 1003.0
20260505120129 60 181 5.2 11.3 0.00 0.00 0.00 70 1003.1
20260505115629 60 213 5.2 10.4 0.00 0.00 0.00 69 1003.2
20260505115429 59 220 5.2 9.6 0.00 0.00 0.00 71 1003.2
20260505114630 59 198 5.2 9.6 0.00 0.00 0.00 71 1003.3
20260505114130 58 187 4.3 8.7 0.00 0.00 0.00 72 1003.2
20260505113627 58 185 4.3 7.8 0.00 0.00 0.00 72 1003.2
20260505113120 57 217 3.5 7.8 0.00 0.00 0.00 73 1003.2
20260505112614 57 238 3.5 6.1 0.00 0.00 0.00 75 1003.1
20260505112108 56 173 3.5 6.1 0.00 0.00 0.00 75 1003.2
20260505111608 56 221 2.6 6.1 0.00 0.00 0.00 77 1003.1
20260505111400 55 231 3.5 6.1 0.00 0.00 0.00 77 1002.9
20260505110605 55 210 2.6 6.1 0.00 0.00 0.00 78 1003.0
20260505110105 54 206 3.5 6.1 0.00 0.00 0.00 78 1002.9
20260505102103 51 196 1.7 3.5 0.00 0.00 0.00 81 1002.5
20260505101606 51 228 1.7 4.3 0.00 0.00 0.00 81 1002.5
20260505101400 51 231 1.7 4.3 0.00 0.00 0.00 80 1002.5
20260505100604 51 245 0.9 3.5 0.00 0.00 0.00 79 1002.6
20260505100104 52 240 0.9 3.5 0.00 0.00 0.00 78 1002.3
20260505100000 52 197 0.9 2.6 0.00 0.00 0.00 76 1002.3
20260505095644 52 223 0.9 2.6 0.00 0.00 0.00 77 1002.3
20260505094907 52 269 1.7 3.5 0.00 0.00 0.00 76 1002.3
20260505094102 53 257 2.6 4.3 0.00 0.00 0.00 76 1002.3
20260505093605 53 260 2.6 4.3 0.00 0.00 0.00 76 1002.2
20260505093104 53 203 2.6 5.2 0.00 0.00 0.00 75 1002.1
20260505092604 53 185 1.7 5.2 0.00 0.00 0.00 75 1002.1
20260505092104 53 197 2.6 4.3 0.00 0.00 0.00 75 1002.0
20260505091604 53 178 2.6 6.1 0.00 0.00 0.00 75 1002.0
20260505091410 53 209 2.6 6.1 0.00 0.00 0.00 75 1002.0
20260505090601 52 223 1.7 4.3 0.00 0.00 0.00 76 1002.0
20260505090101 52 166 0.9 3.5 0.00 0.00 0.00 75 1001.9
20260505090010 52 222 2.6 5.2 0.00 0.00 0.00 75 1002.0
20260505085638 52 197 0.9 2.6 0.00 0.00 0.00 76 1002.0
20260505084908 51 199 2.6 5.2 0.00 0.00 0.00 76 1002.1
20260505084102 51 225 1.7 3.5 0.00 0.00 0.00 77 1002.1
20260505083600 50 283 1.7 3.5 0.00 0.00 0.00 77 1002.2
20260505083100 50 231 1.7 3.5 0.00 0.00 0.00 78 1002.2
20260505082602 50 257 0.9 2.6 0.00 0.00 0.00 78 1002.3
20260505082358 50 286 0.9 2.6 0.00 0.00 0.00 77 1002.2
20260505081903 50 269 1.7 2.6 0.00 0.00 0.00 77 1002.2
20260505081100 51 286 1.7 2.6 0.00 0.00 0.00 76 1002.3
20260505080602 51 284 1.7 2.6 0.00 0.00 0.00 75 1002.2
20260505080100 51 276 0.9 2.6 0.00 0.00 0.00 74 1002.1
20260505075602 51 269 0.0 1.7 0.00 0.00 0.00 74 1002.0
20260505075101 52 295 0.0 1.7 0.00 0.00 0.00 73 1002.1
20260505074602 52 290 0.0 1.7 0.00 0.00 0.00 71 1002.1
20260505074102 53 250 0.9 1.7 0.00 0.00 0.00 70 1002.2
20260505073859 53 269 0.9 1.7 0.00 0.00 0.00 69 1002.2
20260505073103 54 223 0.0 1.7 0.00 0.00 0.00 69 1002.2
20260505072903 54 240 0.9 1.7 0.00 0.00 0.00 68 1002.2
20260505072102 54 269 0.9 2.6 0.00 0.00 0.00 67 1002.3
20260505071600 55 213 0.9 3.5 0.00 0.00 0.00 67 1002.2
20260505071102 55 220 1.7 3.5 0.00 0.00 0.00 67 1002.2
20260505070600 55 236 1.7 3.5 0.00 0.00 0.00 66 1002.3
20260505070402 55 201 1.7 4.3 0.00 0.00 0.00 66 1002.3
20260505065600 55 238 2.6 6.1 0.00 0.00 0.00 66 1002.2
20260505065101 55 204 2.6 6.1 0.00 0.00 0.00 66 1002.2
20260505064602 55 215 2.6 4.3 0.00 0.00 0.00 65 1002.3
20260505064100 55 201 2.6 5.2 0.00 0.00 0.00 65 1002.1
20260505063902 56 204 2.6 6.1 0.00 0.00 0.00 65 1002.2
20260505063102 56 212 3.5 7.8 0.00 0.00 0.00 64 1002.1
20260505062857 56 223 3.5 7.8 0.00 0.00 0.00 65 1002.3
20260505062102 56 218 3.5 7.0 0.00 0.00 0.00 64 1002.3
20260505061559 56 211 3.5 8.7 0.00 0.00 0.00 64 1002.3
20260505061053 56 217 3.5 8.7 0.00 0.00 0.00 64 1002.3
20260505060552 56 191 3.5 9.6 0.00 0.00 0.00 64 1002.3
20260505060051 56 218 3.5 9.6 0.00 0.00 0.00 64 1002.3
20260505055551 56 216 3.5 7.0 0.00 0.00 0.00 64 1002.5
20260505055050 56 227 3.5 7.0 0.00 0.00 0.00 63 1002.3
20260505054552 56 220 4.3 9.6 0.00 0.00 0.00 63 1002.5
20260505054050 56 219 3.5 9.6 0.00 0.00 0.00 64 1002.5
20260505053550 56 191 4.3 8.7 0.00 0.00 0.00 63 1002.3
20260505053351 56 202 3.5 8.7 0.00 0.00 0.00 64 1002.3
20260505052848 55 224 3.5 6.1 0.00 0.00 0.00 64 1002.3
20260505052352 55 208 3.5 6.1 0.00 0.00 0.00 64 1002.3
20260505051550 55 216 2.6 5.2 0.00 0.00 0.00 64 1002.3
20260505051049 55 222 1.7 4.3 0.00 0.00 0.00 63 1002.3
20260505050548 55 227 1.7 3.5 0.00 0.00 0.00 63 1002.2
20260505041030 55 223 1.7 4.3 0.00 0.00 0.00 63 1002.2
20260505040532 56 269 1.7 3.5 0.00 0.00 0.00 63 1002.2
20260505040032 56 269 1.7 3.5 0.00 0.00 0.00 62 1002.1
20260505035532 56 222 1.7 3.5 0.00 0.00 0.00 61 1002.2
20260505035033 57 276 2.6 4.3 0.00 0.00 0.00 60 1002.0
20260505034532 57 248 2.6 4.3 0.00 0.00 0.00 60 1002.1
20260505034031 57 248 1.7 5.2 0.00 0.00 0.00 59 1002.1
20260505033533 57 259 1.7 5.2 0.00 0.00 0.00 59 1002.1
20260505033032 58 223 2.6 6.1 0.00 0.00 0.00 59 1002.1
20260505032532 58 250 3.5 6.1 0.00 0.00 0.00 59 1002.2
20260505032032 58 234 3.5 8.7 0.00 0.00 0.00 58 1002.2
20260505031533 58 252 3.5 8.7 0.00 0.00 0.00 58 1002.3
20260505031032 58 213 4.3 9.6 0.00 0.00 0.00 58 1002.3
20260505030532 58 216 3.5 9.6 0.00 0.00 0.00 58 1002.5
20260505030031 58 201 4.3 8.7 0.00 0.00 0.00 58 1002.5
20260505025835 58 185 4.3 8.7 0.00 0.00 0.00 58 1002.6
20260505025032 58 185 3.5 7.8 0.00 0.00 0.00 58 1002.6
20260505024531 58 240 4.3 8.7 0.00 0.00 0.00 58 1002.5
20260505024033 58 257 4.3 8.7 0.00 0.00 0.00 57 1002.6
20260505023532 58 220 3.5 7.8 0.00 0.00 0.00 57 1002.6
20260505023031 58 234 3.5 7.8 0.00 0.00 0.00 57 1002.5
20260505022532 58 185 3.5 7.8 0.00 0.00 0.00 57 1002.6
20260505022032 59 213 3.5 7.0 0.00 0.00 0.00 57 1002.6
20260505021531 59 193 2.6 7.0 0.00 0.00 0.00 56 1002.5
20260505021032 59 206 2.6 5.2 0.00 0.00 0.00 56 1002.6
20260505020530 59 203 3.5 7.0 0.00 0.00 0.00 56 1002.6
20260505020029 59 223 3.5 7.0 0.00 0.00 0.00 55 1002.3
20260505015531 59 224 2.6 7.0 0.00 0.00 0.00 55 1002.5
20260505015028 60 281 2.6 6.1 0.00 0.00 0.00 54 1002.5
20260505014528 60 195 2.6 6.1 0.00 0.00 0.00 54 1002.3
20260505014028 60 190 2.6 6.1 0.00 0.00 0.00 53 1002.3
20260505013830 60 211 2.6 6.1 0.00 0.00 0.00 53 1002.5
20260505013028 61 216 2.6 5.2 0.00 0.00 0.00 53 1002.3
20260505012528 61 213 3.5 5.2 0.00 0.00 0.00 52 1002.3
20260505012027 61 259 3.5 7.8 0.00 0.00 0.00 52 1002.3
20260505011528 61 182 4.3 7.8 0.00 0.00 0.00 52 1002.3
20260505011027 61 225 4.3 7.8 0.00 0.00 0.00 51 1002.3
20260505010528 62 199 4.3 7.0 0.00 0.00 0.00 51 1002.2
20260505010027 62 220 4.3 11.3 0.00 0.00 0.00 50 1002.2
20260505005527 62 234 5.2 11.3 0.00 0.00 0.00 51 1002.1
20260505005028 62 217 4.3 10.4 0.00 0.00 0.00 50 1002.1
20260505004527 62 213 5.2 10.4 0.00 0.00 0.00 50 1001.9
20260505004027 62 196 4.3 8.7 0.00 0.00 0.00 50 1001.8
20260505003527 63 221 4.3 9.6 0.00 0.00 0.00 49 1001.6
20260505003027 63 223 4.3 9.6 0.00 0.00 0.00 48 1001.6
20260505002526 63 226 5.2 10.4 0.00 0.00 0.00 48 1001.5
20260505002028 63 201 6.1 10.4 0.00 0.00 0.00 47 1001.6
20260505001529 63 234 5.2 10.4 0.00 0.00 0.00 47 1001.5
20260505001329 63 245 5.2 8.7 0.00 0.00 0.00 46 1001.4
20260505000526 64 245 4.3 9.6 0.00 0.00 0.00 46 1001.4
20260505000027 64 207 4.3 9.6 0.00 0.00 0.00 46 1001.4
20260504235527 64 240 4.3 7.8 0.00 0.00 0.00 46 1001.3
20260504235026 64 220 4.3 7.8 0.00 0.00 0.00 45 1001.3
20260504234528 64 239 5.2 10.4 0.00 0.00 0.00 45 1001.3
20260504234029 65 220 6.1 11.3 0.00 0.00 0.00 45 1001.2
20260504233530 65 215 5.2 10.4 0.00 0.00 0.00 45 1001.2
20260504233024 65 224 6.1 10.4 0.00 0.00 0.00 45 1001.2
20260504232517 65 220 5.2 14.8 0.00 0.00 0.00 44 1001.2
20260504232011 65 224 5.2 14.8 0.00 0.00 0.00 44 1001.1
20260504231817 65 226 5.2 10.4 0.00 0.00 0.00 44 1001.1
20260504231006 65 159 6.1 12.2 0.00 0.00 0.00 44 1001.1
20260504230800 66 226 6.1 12.2 0.00 0.00 0.00 43 1001.0
20260504230006 66 198 6.1 13.0 0.00 0.00 0.00 44 1001.0
20260504225502 66 239 7.0 16.5 0.00 0.00 0.00 43 1000.9
20260504225002 66 209 7.0 16.5 0.00 0.00 0.00 42 1000.9
20260504224502 67 206 6.1 13.0 0.00 0.00 0.00 43 1000.9
20260504224002 67 198 5.2 10.4 0.00 0.00 0.00 43 1000.9
20260504223759 67 218 6.1 15.6 0.00 0.00 0.00 42 1000.8
20260504223003 67 219 7.0 15.6 0.00 0.00 0.00 43 1000.8
20260504222502 67 213 6.1 13.9 0.00 0.00 0.00 42 1000.9
20260504222003 68 222 6.1 13.9 0.00 0.00 0.00 42 1000.9
20260504221502 68 207 6.1 13.0 0.00 0.00 0.00 42 1000.9
20260504221303 68 203 6.1 13.0 0.00 0.00 0.00 41 1000.9
20260504220501 68 199 6.1 13.9 0.00 0.00 0.00 41 1000.9
20260504220001 68 220 7.0 13.9 0.00 0.00 0.00 41 1000.9
20260504215502 68 193 7.0 13.0 0.00 0.00 0.00 41 1000.9
20260504214959 68 206 7.0 12.2 0.00 0.00 0.00 42 1000.9
20260504214453 67 196 7.0 15.6 0.00 0.00 0.00 42 1000.9
20260504213947 67 226 7.0 15.6 0.00 0.00 0.00 42 1001.0
20260504213441 67 245 7.8 15.6 0.00 0.00 0.00 42 1000.9
20260504213332 67 248 7.8 17.4 0.00 0.00 0.00 41 1001.0
20260504213327 67 219 8.7 17.4 0.00 0.00 0.00 42 1001.0
20260504211930 68 252 6.1 13.9 0.00 0.00 0.00 42 1001.1
20260504211431 68 225 7.0 16.5 0.00 0.00 0.00 43 1001.2
20260504210929 68 255 7.8 16.5 0.00 0.00 0.00 41 1001.2
20260504210429 68 215 7.8 15.6 0.00 0.00 0.00 41 1001.4
20260504205929 68 210 7.8 15.6 0.00 0.00 0.00 41 1001.5
20260504205432 68 233 7.0 13.0 0.00 0.00 0.00 41 1001.5
20260504204929 68 309 5.2 12.2 0.00 0.00 0.00 41 1001.5
20260504204430 67 201 6.1 12.2 0.00 0.00 0.00 43 1001.6
20260504203930 67 187 7.0 14.8 0.00 0.00 0.00 43 1001.6
20260504203430 67 252 7.0 16.5 0.00 0.00 0.00 42 1001.5
20260504202930 67 257 7.8 16.5 0.00 0.00 0.00 44 1001.7
20260504202727 67 245 7.8 18.2 0.00 0.00 0.00 42 1001.7
20260504201930 67 255 7.8 18.2 0.00 0.00 0.00 42 1001.7
20260504201430 67 215 7.8 16.5 0.00 0.00 0.00 42 1001.9
20260504200929 67 278 9.6 18.2 0.00 0.00 0.00 42 1001.9
20260504200431 67 214 9.6 20.9 0.00 0.00 0.00 42 1001.9
20260504195929 67 226 8.7 20.9 0.00 0.00 0.00 42 1001.9
20260504195726 67 204 7.8 14.8 0.00 0.00 0.00 41 1002.0
20260504194917 68 237 9.6 22.6 0.00 0.00 0.00 41 1002.0
20260504194411 67 203 9.6 22.6 0.00 0.00 0.00 43 1002.0
20260504193907 67 224 7.8 16.5 0.00 0.00 0.00 43 1002.0
20260504193407 67 233 7.8 16.5 0.00 0.00 0.00 44 1002.0
20260504192907 67 188 9.6 19.1 0.00 0.00 0.00 44 1002.1
20260504192407 67 231 8.7 19.1 0.00 0.00 0.00 43 1002.1
20260504191907 67 174 7.8 13.9 0.00 0.00 0.00 43 1002.0
20260504191407 66 195 8.7 15.6 0.00 0.00 0.00 43 1002.0
20260504190906 66 165 8.7 19.1 0.00 0.00 0.00 44 1002.2
20260504190406 67 200 9.6 19.1 0.00 0.00 0.00 42 1002.2
20260504185907 67 208 9.6 19.1 0.00 0.00 0.00 43 1002.2
20260504185407 67 223 8.7 19.1 0.00 0.00 0.00 43 1002.3
20260504184907 67 239 8.7 14.8 0.00 0.00 0.00 44 1002.3
20260504184703 67 234 8.7 16.5 0.00 0.00 0.00 43 1002.3
20260504183910 66 211 9.6 16.5 0.00 0.00 0.00 44 1002.3
20260504183409 66 210 9.6 17.4 0.00 0.00 0.00 44 1002.7
20260504182909 66 278 8.7 17.4 0.00 0.00 0.00 43 1002.6
20260504182410 66 217 8.7 17.4 0.00 0.00 0.00 44 1002.6
20260504181904 66 284 8.7 18.2 0.00 0.00 0.00 44 1002.5
20260504181658 65 229 8.7 18.2 0.00 0.00 0.00 46 1002.3
20260504181208 65 245 7.8 17.4 0.00 0.00 0.00 44 1002.6
20260504180402 65 226 7.8 15.6 0.00 0.00 0.00 46 1002.6
20260504175901 65 222 9.6 20.0 0.00 0.00 0.00 45 1002.7
20260504175513 65 226 8.7 16.5 0.00 0.00 0.00 45 1002.7
20260504175450 65 243 9.6 20.0 0.00 0.00 0.00 44 1002.6
20260504174703 65 217 9.6 20.9 0.00 0.00 0.00 44 1002.8
20260504173902 64 145 9.6 20.9 0.00 0.00 0.00 45 1002.7
20260504173402 64 259 7.8 19.1 0.00 0.00 0.00 45 1003.0
20260504172902 64 250 8.7 17.4 0.00 0.00 0.00 47 1002.9
20260504172401 64 271 8.7 20.0 0.00 0.00 0.00 44 1002.9
20260504171901 63 245 8.7 20.0 0.00 0.00 0.00 45 1003.0